Date String (YYYY-MM-DD hh:mm:ss) UTC,Instrument flags,absolute air pressure of the measurement (hPa),sample flow rate (lpm),inlet stack bypass flow (lpm),air temperature of the measurement (°C),ambient temperature measured by the external sensor (°C),aerosol sample conditioner tube jacket temperature (°C),OPC LED temperature (°C),internal box temperature (°C),relative humidity of the measurement (%),span deviation,mass concentration of particles derived from Lorenz-Mie calculation of OPC scattering (μg/m³),mass concentration of particles derived from Lorenz-Mie calculation of OPC scattering (μg/m³),mass concentration of particles derived from Lorenz-Mie calculation of OPC scattering (μg/m³)
DateTimeUTC,F1_M11,P_M11,Q1_M11,Q2_M11,T1_M11,T2_M11,T3_M11,T4_M11,T5_M11,U1_M11,ZSPAN_M11,X0_M11,X2_M11,X1_M11
2024-01-04 13:00:00,SystemResetWarning,0824.3,5.00,000.00,020.0,019.2,000.0,028.3,021.3,14.4,0001.4,0011.14,0006.20,0005.64
2024-01-04 13:01:00,SystemResetWarning,0824.3,5.00,000.00,020.0,019.2,000.0,028.3,021.3,14.4,0001.4,0011.11,0006.27,0005.70
2024-01-04 13:02:00,SystemResetWarning,0824.3,5.00,000.00,020.0,019.1,000.0,028.3,021.3,14.4,0001.7,0011.18,0006.30,0005.76
2024-01-04 13:03:00,SystemResetWarning,0824.3,5.00,000.00,020.0,019.1,000.0,028.3,021.3,14.4,0002.0,0011.53,0006.34,0005.79
2024-01-04 13:04:00,SystemResetWarning,0824.3,5.00,000.00,020.0,019.2,000.0,028.3,021.3,14.4,0000.1,0012.83,0006.37,0005.83
2024-01-04 13:05:00,SystemResetWarning,0824.3,5.00,000.00,020.0,019.2,000.0,028.3,021.3,14.4,0001.3,0013.71,0006.39,0005.87
2024-01-04 13:06:00,SystemResetWarning,0824.3,5.00,000.00,020.0,019.2,000.0,028.3,021.3,14.4,0001.8,0013.92,0006.41,0005.90
2024-01-04 13:07:00,SystemResetWarning,0824.3,5.00,000.00,020.0,019.2,000.0,028.3,021.3,14.4,0000.0,0013.31,0006.46,0005.93
2024-01-04 13:08:00,SystemResetWarning,0824.4,5.00,000.00,020.0,019.2,000.0,028.3,021.3,14.4,0000.0,0013.05,0006.49,0005.95
2024-01-04 13:09:00,SystemResetWarning,0824.4,5.00,000.00,020.0,019.2,000.0,028.3,021.2,14.4,0001.3,0013.01,0006.51,0005.98
2024-01-04 13:10:00,SystemResetWarning,0824.4,5.00,000.00,020.0,019.2,000.0,028.3,021.2,14.4,0000.2,0012.77,0006.49,0005.98
2024-01-04 13:11:00,SystemResetWarning,0824.4,5.00,000.00,020.0,019.2,000.0,028.3,021.2,14.4,0000.0,0012.62,0006.46,0005.97
2024-01-04 13:12:00,SystemResetWarning,0824.4,5.00,000.00,019.9,019.2,000.0,028.3,021.1,14.4,0000.0,0012.98,0006.44,0005.98
2024-01-04 13:13:00,SystemResetWarning,0824.4,5.00,000.00,019.9,019.2,000.0,028.3,021.1,14.4,0000.7,0013.25,0006.51,0006.00
2024-01-04 13:14:00,SystemResetWarning,0824.4,5.00,000.00,019.9,019.1,000.0,028.3,021.1,14.4,0002.2,0013.27,0006.60,0006.06
2024-01-04 13:15:00,SystemResetWarning,0824.4,5.00,000.00,019.9,019.2,000.0,028.3,021.1,14.4,0002.1,0012.55,0006.66,0006.11
2024-01-04 13:16:00,SystemResetWarning,0824.4,5.00,000.00,019.9,019.2,000.0,028.3,021.1,14.4,0002.1,0012.21,0006.75,0006.16
2024-01-04 13:17:00,SystemResetWarning,0824.4,4.99,000.00,019.9,019.2,000.0,028.3,021.1,14.4,0001.7,0012.32,0006.87,0006.23
2024-01-04 13:18:00,SystemResetWarning,0824.3,4.99,000.00,019.9,019.2,000.0,028.3,021.2,14.4,0001.4,0012.81,0006.90,0006.29
2024-01-04 13:19:00,SystemResetWarning,0824.4,5.00,000.00,019.9,019.1,000.0,028.3,021.1,14.4,0001.3,0012.90,0006.96,0006.35
2024-01-04 13:20:00,SystemResetWarning,0824.4,5.00,000.00,019.9,019.1,000.0,028.3,021.2,14.4,0001.2,0013.41,0007.05,0006.41
2024-01-04 13:21:00,SystemResetWarning,0824.3,5.01,000.00,019.9,019.1,000.0,028.2,021.2,14.4,0000.9,0013.69,0007.17,0006.46
2024-01-04 13:22:00,SystemResetWarning,0824.4,5.00,000.00,019.9,019.1,000.0,028.2,021.2,14.4,0001.1,0013.95,0007.32,0006.54
2024-01-04 13:23:00,SystemResetWarning,0824.4,5.00,000.00,019.9,019.1,000.0,028.2,021.2,14.3,0001.0,0014.41,0007.43,0006.63
2024-01-04 13:24:00,SystemResetWarning,0824.4,4.99,000.00,019.9,019.1,000.0,028.2,021.1,14.3,0000.8,0014.80,0007.53,0006.71
2024-01-04 13:25:00,SystemResetWarning,0824.4,4.99,000.00,019.9,019.1,000.0,028.2,021.1,14.3,0001.2,0014.90,0007.58,0006.75
2024-01-04 13:26:00,SystemResetWarning,0824.4,5.01,000.00,019.9,019.1,000.0,028.2,021.1,14.3,0001.3,0014.55,0007.63,0006.79
2024-01-04 13:27:00,SystemResetWarning,0824.4,5.01,000.00,019.9,019.1,000.0,028.2,021.2,14.3,0002.1,0014.07,0007.62,0006.82
2024-01-04 13:28:00,SystemResetWarning,0824.3,5.00,000.00,019.9,019.1,000.0,028.2,021.2,14.3,0002.7,0013.70,0007.60,0006.83
2024-01-04 13:29:00,SystemResetWarning,0824.3,5.00,000.00,019.9,019.1,000.0,028.2,021.1,14.3,0002.5,0012.94,0007.58,0006.81
2024-01-04 13:30:00,SystemResetWarning,0824.3,5.00,000.00,019.9,019.0,000.0,028.2,021.1,14.3,0002.5,0012.57,0007.57,0006.77
2024-01-04 13:31:00,SystemResetWarning,0824.4,5.00,000.00,019.9,019.0,000.0,028.2,021.1,14.3,0002.5,0012.24,0007.54,0006.71
2024-01-04 13:32:00,SystemResetWarning,0824.4,5.00,000.00,019.9,019.0,000.0,028.2,021.1,14.3,0002.2,0012.01,0007.48,0006.67
2024-01-04 13:33:00,SystemResetWarning,0824.4,5.00,000.00,019.8,019.0,000.0,028.2,021.1,14.3,0002.3,0011.79,0007.34,0006.59
2024-01-04 13:34:00,SystemResetWarning,0824.4,4.99,000.00,019.8,019.0,000.0,028.2,021.1,14.3,0002.6,0011.44,0007.28,0006.52
2024-01-04 13:35:00,SystemResetWarning,0824.4,4.99,000.00,019.8,018.9,000.0,028.2,021.1,14.3,0002.8,0010.60,0007.16,0006.43
2024-01-04 13:36:00,SystemResetWarning,0824.4,5.00,000.00,019.8,018.9,000.0,028.2,021.1,14.3,0002.5,0010.37,0007.06,0006.34
2024-01-04 13:37:00,SystemResetWarning,0824.3,5.01,000.00,019.8,018.9,000.0,028.2,021.1,14.3,0002.3,0010.39,0006.94,0006.25
2024-01-04 13:38:00,SystemResetWarning,0824.4,5.01,000.00,019.8,018.9,000.0,028.2,021.0,14.3,0001.6,0010.49,0006.86,0006.17
2024-01-04 13:39:00,SystemResetWarning,0824.4,5.00,000.00,019.8,018.9,000.0,028.2,021.1,14.3,0001.0,0010.72,0006.80,0006.14
2024-01-04 13:40:00,SystemResetWarning,0824.4,4.99,000.00,019.8,018.8,000.0,028.2,021.0,14.3,0000.8,0010.80,0006.80,0006.13
2024-01-04 13:41:00,SystemResetWarning,0824.4,4.99,000.00,019.8,018.8,000.0,028.1,021.0,14.3,0000.8,0010.76,0006.80,0006.13
2024-01-04 13:42:00,SystemResetWarning,0824.3,5.01,000.00,019.8,018.8,000.0,028.1,021.0,14.3,0000.8,0010.87,0006.81,0006.16
2024-01-04 13:43:00,SystemResetWarning,0824.4,5.01,000.00,019.8,018.8,000.0,028.1,021.0,14.3,0001.5,0010.83,0006.82,0006.21
2024-01-04 13:44:00,SystemResetWarning,0824.4,5.01,000.00,019.8,018.7,000.0,028.1,021.0,14.3,0001.3,0010.92,0006.86,0006.24
2024-01-04 13:45:00,SystemResetWarning,0824.4,5.01,000.00,019.7,018.7,000.0,028.1,021.0,14.3,0001.4,0011.04,0006.92,0006.29
2024-01-04 13:46:00,SystemResetWarning,0824.4,5.00,000.00,019.7,018.7,000.0,028.1,021.0,14.3,0000.9,0011.24,0006.96,0006.33
2024-01-04 13:47:00,SystemResetWarning,0824.4,4.99,000.00,019.7,018.7,000.0,028.1,021.0,14.3,0001.0,0011.19,0006.98,0006.37
2024-01-04 13:48:00,SystemResetWarning,0824.4,5.00,000.00,019.7,018.7,000.0,028.1,021.0,14.3,0001.2,0011.18,0007.05,0006.43
2024-01-04 13:49:00,SystemResetWarning,0824.4,5.00,000.00,019.7,018.7,000.0,028.1,021.0,14.3,0000.8,0011.12,0007.12,0006.49
2024-01-04 13:50:00,SystemResetWarning,0824.4,5.00,000.00,019.7,018.7,000.0,028.1,021.0,14.3,0000.9,0011.06,0007.18,0006.53
2024-01-04 13:51:00,SystemResetWarning,0824.4,4.99,000.00,019.7,018.7,000.0,028.1,021.0,14.3,0001.0,0011.69,0007.23,0006.55
2024-01-04 13:52:00,SystemResetWarning,0824.5,5.00,000.00,019.7,018.7,000.0,028.1,021.0,14.3,0001.0,0012.12,0007.30,0006.59
2024-01-04 13:53:00,SystemResetWarning,0824.5,5.00,000.00,019.7,018.7,000.0,028.1,021.0,14.3,0000.9,0012.13,0007.37,0006.63
2024-01-04 13:54:00,SystemResetWarning,0824.4,5.00,000.00,019.7,018.7,000.0,028.1,021.0,14.3,0000.4,0012.13,0007.40,0006.65
2024-01-04 13:55:00,SystemResetWarning,0824.4,5.00,000.00,019.7,018.7,000.0,028.1,020.9,14.3,0000.0,0012.43,0007.42,0006.69
2024-01-04 13:56:00,SystemResetWarning,0824.4,5.00,000.00,019.7,018.7,000.0,028.1,021.0,14.3,0000.0,0012.35,0007.42,0006.72
2024-01-04 13:57:00,SystemResetWarning,0824.4,4.99,000.00,019.7,018.7,000.0,028.0,020.9,14.3,0000.0,0012.20,0007.44,0006.74
2024-01-04 13:58:00,SystemResetWarning,0824.4,5.00,000.00,019.7,018.6,000.0,028.0,020.9,14.3,0000.0,0012.15,0007.46,0006.77
2024-01-04 13:59:00,SystemResetWarning,0824.4,5.01,000.00,019.7,018.6,000.0,028.0,020.9,14.3,0000.0,0012.17,0007.50,0006.81
